Dewpoint
-5 -4 -2 -2 -2 0 0 0 1 7 7 10 10 12 13 12 10 10 9 8 9 9 11 11 12 13 14 14 14 14 15 15 15 14 14 14 12 11 14 14 14 14 15 15
-4 -3 -6 -6 -4 -4 -4 0 4 7 7 8 10 10 13 11 11 11 9 8 8 9 11 12 12 13 14 14 14 15 15 15 15 14 15 14 14 12 13 13 14 13 15 14
-5 -5 -7 -7 -4 -4 -1 0 5 8 7 11 9 14 14 11 11 9 10 9 8 9 11 12 12 13 14 14 14 14 14 15 15 14 15 14 14 13 13 13 15 15 12 14
-7 -8 -7 -5 -5 -3 -1 -1 1 2 5 13 10 16 15 13 14 11 9 9 9 9 10 11 12 12 13 14 14 15 14 15 14 15 14 15 15 14 14 11 14 15 15 15
-6 -7 -7 -5 -4 -3 -2 -2 1 2 4 9 11 13 13 13 12 13 11 9 9 9 10 11 11 12 12 13 14 15 15 15 14 15 15 14 14 15 15 13 15 15 13 12
-7 -8 -8 -7 -6 -4 -5 -4 1 3 10 10 9 7 10 11 11 14 13 9 9 8 9 11 12 11 13 13 13 14 14 15 15 15 15 15 14 15 15 15 15 15 14 11
-6 -9 -9 -9 -6 -5 -5 -2 6 8 15 15 7 9 5 4 7 5 5 6 8 9 9 10 11 12 13 13 12 14 15 15 15 15 14 15 15 14 15 15 14 14 12 15
-5 -5 -11 -10 -7 -4 -3 -0 6 7 12 10 6 13 6 2 3 5 5 7 7 9 8 9 11 12 13 13 13 13 15 15 15 15 15 15 15 16 15 16 16 15 14 15
-5 -5 -11 -10 -9 -6 -3 -1 -4 -2 -4 -4 6 9 5 3 3 5 6 8 8 9 9 9 11 12 13 14 14 13 14 15 16 15 15 15 14 14 13 14 14 15 15 15
-6 -4 -8 -8 -8 -7 -4 -5 -2 -2 4 3 2 8 10 11 8 5 7 8 9 9 9 9 11 11 13 13 14 14 14 15 16 16 16 15 15 15 14 14 15 15 14 14
-6 -6 -6 -9 -7 -6 -6 -4 -5 -6 -4 1 4 7 11 12 11 7 6 7 8 9 9 10 11 12 13 13 14 14 14 14 16 16 16 16 16 15 13 13 13 14 14 14
-6 -6 -4 -3 -8 -8 -7 -5 -4 -2 -1 -4 -3 6 4 10 11 5 5 6 8 8 8 9 12 13 13 13 13 15 15 15 15 16 16 16 16 16 16 12 10 11 11 10
-4 -2 -2 -2 -4 -3 -3 -5 -6 -4 -5 3 -0 3 0 1 3 3 4 6 8 8 8 9 11 12 13 13 13 14 15 15 16 15 16 16 16 16 16 17 15 13 13 13
-2 -2 -0 0 2 2 4 2 1 3 5 2 -3 2 6 6 6 3 5 7 7 8 9 9 10 13 13 14 13 14 15 15 16 16 15 16 16 15 15 15 16 16 15 14
-2 1 0 -1 -1 2 3 3 3 5 6 7 1 -0 6 5 7 7 5 4 8 8 8 10 11 12 13 14 14 15 15 15 16 16 15 15 15 15 15 15 16 16 16 15
-1 5 2 3 0 -0 7 4 5 3 6 6 1 0 2 5 2 6 6 -1 6 8 9 9 10 11 13 14 14 14 14 14 15 15 16 15 16 16 16 16 16 16 17 17
3 3 4 5 2 3 4 5 5 3 4 4 6 0 3 4 4 8 7 5 8 9 9 9 10 12 12 15 14 12 11 13 14 15 15 16 16 16 17 17 16 16 16 16
3 5 5 7 5 7 2 -0 -0 3 5 6 6 4 3 9 5 3 6 7 8 10 9 10 10 12 12 15 16 15 13 13 13 13 13 14 15 15 16 16 16 17 17 17
-1 2 5 6 5 3 2 -1 -1 1 5 6 7 5 5 5 2 2 0 4 5 5 8 9 9 11 13 15 16 17 17 17 16 15 16 17 17 17 18 17 17 17 17 17
-0 2 4 5 6 6 3 -2 -3 -1 4 6 8 9 8 6 10 11 11 12 2 3 6 6 8 12 14 15 16 17 18 18 18 18 18 18 18 18 18 18 18 18 17 15
3 8 7 6 7 3 2 4 -2 5 8 8 9 10 9 13 13 9 9 12 4 4 8 9 10 14 15 16 17 18 19 19 18 18 18 18 18 16 14 13 10 9 8 7
4 5 6 9 11 10 6 6 9 10 8 9 9 9 10 10 8 6 6 11 9 10 11 12 14 15 17 17 18 19 19 18 18 18 17 15 12 10 11 8 6 6 8 10
6 6 9 8 11 9 8 10 9 8 8 8 8 8 9 9 8 9 11 12 12 12 13 14 16 17 18 18 18 18 17 17 16 12 12 11 9 6 6 7 8 9 10 10
2 3 5 7 9 8 7 9 7 8 9 6 7 7 8 9 9 8 11 13 14 14 15 16 17 17 17 17 17 17 15 12 12 12 9 8 8 8 8 10 8 9 8 8
3 3 4 5 5 4 5 9 10 9 8 7 6 7 7 8 9 8 11 13 14 15 15 16 17 17 17 17 16 14 12 11 10 10 12 11 10 11 11 11 12 11 11 9
1 3 3 5 4 4 5 7 6 5 7 6 5 5 7 8 9 9 11 14 15 15 15 16 16 16 16 16 15 14 12 11 11 10 10 12 12 12 12 12 12 11 10 8
Wind_Speed
17 12 14 19 13 1 9 11 13 2 6 12 11 14 16 23 22 21 24 21 22 22 21 20 18 19 19 19 20 20 19 18 17 13 18 14 12 12 10 9 10 12 9 5
14 14 17 17 7 8 12 16 3 5 5 8 11 12 18 19 23 28 26 21 20 22 25 20 17 24 25 23 21 22 21 23 20 13 15 18 16 10 9 13 10 10 6 4
16 21 15 14 8 10 16 18 5 2 15 12 16 8 17 20 19 20 28 23 20 24 24 23 20 20 23 23 23 22 22 23 20 17 16 16 15 16 15 15 7 7 8 7
15 18 7 10 13 13 15 6 8 12 6 5 8 3 5 7 16 24 22 28 26 27 27 24 26 20 20 17 18 20 22 22 21 21 21 19 19 16 14 18 12 7 12 8
13 13 14 11 14 11 11 9 11 12 14 8 11 4 4 11 2 13 22 26 24 29 29 27 22 23 23 20 17 19 20 18 22 25 21 21 20 15 12 12 12 14 15 10
15 17 9 14 13 14 9 13 13 15 10 9 17 10 10 14 17 21 41 36 29 24 27 29 24 22 22 19 18 18 20 17 19 25 23 21 18 17 15 15 15 14 15 7
14 15 14 12 16 6 13 14 3 5 5 4 20 12 8 11 19 4 5 14 26 24 27 27 25 28 23 21 18 19 20 19 20 25 27 22 21 20 13 16 15 10 11 11
12 15 19 16 15 14 15 14 5 15 8 10 18 3 7 4 9 8 5 7 13 22 18 29 25 24 25 22 19 18 20 20 19 24 23 26 21 18 18 11 14 11 9 8
16 14 18 15 15 14 15 14 18 13 18 10 9 14 9 3 8 11 10 12 13 18 21 17 27 24 20 21 20 19 21 19 17 20 25 24 25 23 22 18 14 17 10 9
12 13 8 15 16 18 15 14 12 9 9 12 2 8 3 13 12 8 10 13 16 17 19 19 23 22 21 22 20 19 19 18 17 18 18 22 22 22 22 21 19 15 17 12
11 13 13 6 6 12 11 13 11 13 11 11 3 4 11 13 23 9 11 16 16 17 18 20 22 19 20 22 21 20 19 16 19 19 20 17 18 17 19 25 25 24 20 21
8 7 11 15 11 15 16 17 12 7 10 9 8 9 21 27 35 17 15 17 18 18 19 17 20 19 19 20 22 21 22 19 16 20 23 22 22 20 21 20 24 23 22 20
9 5 9 13 14 7 10 8 13 17 14 12 5 5 8 11 11 9 15 19 20 21 19 19 19 21 21 23 23 22 22 21 17 20 19 22 20 22 24 22 19 19 21 20
6 14 16 12 4 7 15 21 17 18 11 13 8 10 8 10 17 6 7 21 21 22 23 22 20 22 21 23 25 24 24 23 21 20 19 19 22 20 21 21 23 21 19 21
7 14 17 19 16 4 10 14 18 13 18 21 5 8 15 11 2 19 21 11 16 20 22 23 24 24 24 23 25 25 25 25 24 25 22 22 22 22 22 21 21 22 24 22
10 14 15 22 23 22 22 10 19 21 14 34 23 13 12 14 18 13 43 21 20 21 23 24 23 25 23 23 23 24 27 24 23 24 26 26 24 23 23 21 23 24 23 24
8 8 12 19 18 15 19 15 24 20 23 16 19 11 8 12 6 25 35 38 28 28 27 27 24 26 25 25 24 23 24 23 25 26 25 26 25 26 25 24 23 24 24 25
17 14 12 13 14 22 19 19 22 4 4 12 23 19 4 24 35 10 32 36 26 32 30 31 29 28 24 23 25 23 22 24 24 24 24 22 22 20 19 18 17 16 17 18
19 16 14 14 16 21 23 21 21 13 7 8 24 24 14 5 6 7 6 13 19 22 23 25 29 27 25 23 23 22 22 22 23 22 20 19 18 13 13 12 11 14 19 20
20 18 13 14 19 22 15 19 24 14 10 9 4 13 15 5 4 4 41 61 27 24 39 28 22 18 24 22 21 22 20 17 15 13 11 11 13 16 15 16 16 20 23 25
11 4 12 14 18 18 7 20 29 9 4 6 10 12 12 4 4 15 25 61 12 9 27 25 23 22 19 19 20 19 17 12 14 17 18 18 17 15 14 16 17 19 21 23
14 11 10 10 8 17 28 10 15 8 10 7 8 6 8 6 6 19 11 32 7 8 13 17 19 18 17 18 19 18 20 21 23 22 17 13 11 10 12 14 15 16 17 18
6 7 7 9 6 10 20 8 23 24 13 10 6 7 8 5 6 18 13 7 6 9 13 15 20 22 18 16 17 21 19 14 11 11 9 8 7 8 8 7 7 7 10 14
11 10 7 10 4 9 15 14 12 24 39 14 14 11 11 10 6 6 7 7 9 13 16 17 18 17 16 16 18 20 13 12 10 8 6 4 3 1 2 1 5 8 13 16
13 18 13 12 12 18 8 4 10 10 23 22 17 13 14 14 9 8 10 8 10 12 14 17 18 18 16 16 15 13 12 10 8 7 6 4 3 3 3 7 10 14 17 20
19 13 11 12 14 12 15 12 15 13 23 24 20 16 14 15 17 10 10 17 14 13 14 16 17 15 15 13 12 12 11 11 10 8 7 7 3 2 4 3 9 10 15 20
Wind_Direction
222 240 238 247 250 242 303 284 293 112 236 236 253 209 196 206 208 201 214 207 187 190 184 188 185 181 182 188 197 198 181 193 196 193 181 175 175 182 202 192 233 245 231 242
246 225 248 264 316 308 281 265 354 300 258 222 316 285 192 197 203 198 214 215 209 181 180 187 185 187 180 189 196 193 198 195 198 197 185 185 187 201 213 199 226 239 249 242
235 244 210 245 268 244 248 258 120 228 258 71 21 13 351 320 329 202 207 216 211 181 178 184 191 184 182 189 190 196 202 205 195 189 187 195 192 210 219 207 205 228 243 229
244 250 266 270 258 263 280 28 280 232 279 232 129 260 256 336 326 323 213 208 215 183 185 191 182 188 182 189 191 199 201 211 199 185 200 201 205 209 215 210 205 206 223 208
244 230 253 234 254 272 300 298 297 273 257 148 199 207 239 154 244 314 288 205 226 190 188 186 191 191 187 180 188 199 206 215 206 189 192 209 200 204 214 213 213 224 234 211
258 282 264 248 247 248 282 293 269 261 19 338 300 286 194 176 153 186 242 234 199 217 180 178 184 193 182 177 181 208 211 223 207 196 195 199 205 203 210 210 219 215 239 232
242 246 258 259 258 229 239 254 360 279 46 258 289 292 222 189 169 155 232 188 190 192 182 179 174 163 174 180 184 197 205 211 218 204 201 204 201 209 209 221 216 224 224 250
240 214 212 214 236 257 236 279 205 274 168 230 211 268 293 357 97 108 177 153 193 169 190 177 168 171 174 182 186 191 214 215 222 210 201 207 205 212 206 211 218 214 247 254
282 308 179 208 212 225 257 251 290 295 292 311 124 187 184 256 122 128 128 139 152 163 183 170 162 170 176 182 189 192 207 218 224 217 211 211 215 215 215 216 232 224 224 219
276 293 209 189 199 218 248 303 301 315 322 336 60 93 55 349 314 116 138 147 155 170 167 176 171 179 181 188 195 193 212 217 215 212 216 215 216 219 210 209 227 231 231 244
242 273 299 215 187 247 217 241 238 257 273 296 260 248 154 171 285 187 159 155 159 167 170 179 170 176 180 184 191 192 206 217 200 204 218 214 226 232 222 217 218 224 226 223
256 250 250 243 213 222 247 242 279 245 262 243 295 48 165 175 197 185 154 153 159 167 173 174 164 175 184 184 189 191 199 211 202 204 207 220 220 220 240 233 231 235 243 241
312 267 263 275 270 318 281 274 282 299 267 288 279 158 190 180 124 172 152 155 154 161 169 175 178 177 184 190 193 197 203 205 209 204 211 217 225 224 223 234 248 244 241 251
305 272 289 281 342 5 317 311 320 329 306 307 274 128 39 28 359 349 99 160 159 160 171 176 180 178 188 193 198 202 208 210 206 210 217 216 225 231 231 225 235 253 254 246
255 261 278 284 283 186 315 299 321 308 302 297 332 233 163 144 148 9 317 266 159 164 169 178 180 193 196 197 205 205 211 212 211 207 218 225 233 239 239 232 235 242 250 255
246 260 269 274 280 293 168 248 311 269 264 292 285 292 118 146 132 162 243 224 232 176 176 178 186 188 200 205 213 213 217 218 213 213 215 220 225 240 245 244 237 236 242 251
285 273 282 278 294 293 271 210 213 234 290 323 325 292 100 7 321 188 212 198 204 181 186 185 188 193 205 199 214 214 212 214 215 219 221 224 229 233 237 242 246 250 248 246
270 255 263 271 269 268 279 273 287 314 58 328 306 318 330 169 231 188 226 201 198 178 187 186 184 189 204 204 215 217 212 215 218 222 226 225 230 234 238 239 245 249 254 256
252 260 258 259 256 269 272 282 292 305 1 348 308 279 4 198 270 114 230 257 189 191 183 186 185 190 189 188 206 207 208 215 220 221 220 222 229 232 236 245 254 252 253 257
244 243 242 248 256 261 273 285 288 313 288 162 48 8 21 88 155 308 327 312 190 185 200 179 174 170 175 179 193 194 199 208 209 205 202 207 213 215 224 226 234 249 258 261
290 289 280 257 246 250 294 341 273 270 314 28 39 46 65 71 163 136 324 309 94 152 152 164 167 166 171 176 183 183 181 185 189 197 203 216 225 236 238 245 255 265 277 282
281 280 258 244 284 279 4 0 317 6 90 51 37 38 41 136 173 170 228 303 50 101 140 148 152 159 165 174 175 170 176 192 201 211 225 227 231 238 250 276 281 285 288 291
323 8 339 330 291 330 350 355 356 356 20 20 351 355 5 24 336 203 170 182 160 157 154 149 152 148 156 163 170 186 198 199 206 198 205 232 255 278 288 305 320 334 324 321
312 356 312 329 109 33 325 317 342 17 322 352 349 352 345 346 343 316 138 151 154 159 152 145 150 145 155 164 181 202 198 186 184 196 207 219 240 261 104 69 10 356 355 349
293 307 289 291 279 347 257 103 39 332 304 323 330 340 336 322 315 299 167 165 167 160 150 152 153 161 162 172 189 184 177 179 177 166 174 159 161 127 11 4 1 352 352 352
271 277 295 312 335 321 300 274 280 312 322 315 311 319 320 323 315 290 214 168 170 168 160 157 164 165 167 172 171 180 179 176 173 169 163 155 211 149 182 5 333 335 339 352
Height
1497 1498 1496 1482 1473 1477 1482 1482 1480 1477 1474 1480 1478 1478 1487 1490 1492 1494 1493 1492 1496 1499 1506 1511 1514 1519 1522 1526 1529 1533 1538 1540 1543 1545 1547 1549 1551 1553 1557 1560 1561 1563 1564 1563
1494 1494 1481 1474 1471 1478 1479 1478 1480 1484 1474 1478 1479 1473 1478 1480 1480 1485 1487 1489 1490 1494 1502 1508 1511 1514 1518 1521 1526 1530 1535 1538 1541 1544 1547 1548 1550 1553 1556 1560 1561 1562 1563 1564
1490 1476 1471 1475 1473 1480 1474 1473 1480 1492 1471 1484 1487 1497 1495 1491 1487 1478 1483 1487 1487 1491 1497 1503 1508 1512 1514 1518 1522 1526 1531 1535 1539 1543 1545 1548 1549 1551 1553 1557 1560 1561 1562 1563
1480 1473 1472 1476 1477 1472 1476 1461 1465 1468 1472 1496 1492 1517 1502 1496 1492 1492 1478 1482 1483 1486 1492 1498 1503 1509 1512 1515 1520 1524 1528 1532 1537 1539 1544 1547 1548 1550 1552 1554 1558 1558 1558 1558
1477 1473 1474 1476 1473 1465 1475 1463 1468 1466 1467 1477 1491 1506 1490 1492 1510 1492 1482 1475 1479 1480 1486 1492 1499 1505 1509 1515 1517 1521 1526 1530 1534 1538 1541 1544 1547 1549 1551 1553 1555 1555 1555 1554
1474 1467 1468 1469 1465 1465 1467 1468 1466 1466 1492 1503 1486 1485 1484 1485 1485 1485 1470 1469 1472 1476 1481 1488 1494 1500 1508 1512 1517 1518 1522 1527 1532 1535 1539 1541 1544 1547 1550 1551 1552 1552 1553 1555
1472 1471 1466 1468 1468 1463 1466 1471 1499 1502 1532 1545 1480 1495 1465 1450 1458 1455 1456 1458 1464 1471 1476 1485 1492 1497 1503 1510 1514 1517 1520 1524 1528 1532 1536 1538 1541 1545 1548 1549 1551 1554 1555 1555
1475 1479 1462 1460 1467 1468 1464 1463 1495 1504 1518 1495 1468 1511 1468 1446 1448 1455 1457 1455 1460 1467 1474 1481 1488 1495 1500 1508 1512 1517 1517 1522 1526 1530 1533 1537 1539 1542 1544 1547 1551 1553 1555 1554
1470 1460 1443 1453 1458 1462 1466 1468 1445 1459 1445 1452 1469 1471 1450 1448 1448 1450 1451 1456 1460 1467 1474 1481 1487 1494 1501 1506 1510 1515 1516 1519 1523 1526 1530 1533 1536 1538 1540 1543 1548 1551 1552 1554
1460 1472 1446 1446 1452 1454 1458 1452 1470 1459 1484 1486 1460 1471 1478 1474 1463 1456 1454 1455 1462 1468 1473 1481 1486 1492 1498 1503 1508 1513 1515 1518 1521 1525 1527 1530 1532 1535 1537 1539 1543 1546 1549 1551
1453 1460 1458 1447 1455 1461 1459 1462 1457 1455 1458 1475 1483 1475 1464 1478 1473 1457 1456 1457 1462 1468 1474 1480 1485 1491 1496 1501 1505 1511 1514 1516 1519 1523 1525 1528 1530 1533 1535 1536 1539 1542 1545 1547
1450 1457 1468 1458 1443 1442 1443 1449 1446 1462 1464 1450 1451 1462 1445 1461 1453 1451 1453 1456 1461 1468 1474 1480 1484 1490 1495 1499 1503 1507 1511 1513 1515 1520 1524 1526 1529 1532 1532 1533 1536 1539 1541 1543
1454 1460 1475 1466 1449 1443 1445 1441 1441 1440 1435 1453 1461 1461 1438 1440 1444 1447 1448 1453 1459 1466 1473 1479 1484 1487 1492 1497 1500 1504 1508 1511 1514 1519 1521 1524 1525 1528 1529 1531 1532 1534 1536 1538
1461 1461 1463 1473 1470 1465 1473 1459 1452 1459 1467 1452 1444 1450 1453 1450 1459 1448 1447 1446 1459 1461 1472 1477 1482 1486 1491 1494 1498 1501 1505 1509 1513 1516 1518 1521 1523 1524 1526 1528 1530 1530 1532 1534
1461 1469 1461 1455 1453 1462 1474 1468 1461 1469 1467 1469 1444 1446 1452 1448 1459 1459 1453 1447 1458 1458 1468 1476 1480 1484 1488 1492 1495 1499 1502 1506 1509 1513 1516 1518 1519 1521 1523 1525 1527 1528 1528 1529
1459 1468 1464 1466 1455 1455 1478 1475 1473 1467 1471 1455 1437 1438 1437 1445 1439 1457 1458 1445 1454 1459 1465 1472 1478 1481 1484 1487 1491 1495 1498 1501 1505 1508 1511 1514 1517 1517 1519 1520 1522 1524 1525 1525
1459 1463 1469 1473 1455 1456 1466 1463 1465 1451 1452 1443 1455 1435 1441 1449 1448 1453 1450 1443 1447 1455 1461 1466 1473 1477 1481 1485 1487 1490 1494 1498 1501 1504 1507 1510 1512 1514 1515 1516 1517 1518 1520 1521
1460 1463 1466 1472 1468 1484 1451 1440 1434 1442 1448 1448 1444 1437 1438 1451 1453 1446 1443 1436 1441 1446 1454 1460 1466 1471 1476 1482 1485 1488 1491 1494 1497 1500 1503 1505 1507 1509 1511 1512 1513 1514 1515 1517
1454 1456 1462 1469 1467 1456 1448 1440 1439 1438 1445 1449 1446 1443 1432 1437 1438 1435 1436 1430 1442 1447 1453 1458 1459 1465 1470 1476 1481 1485 1488 1491 1494 1497 1500 1503 1505 1506 1508 1509 1510 1510 1510 1511
1444 1445 1454 1460 1468 1472 1446 1436 1433 1429 1451 1437 1444 1442 1440 1437 1441 1452 1444 1449 1438 1443 1446 1453 1456 1462 1468 1473 1477 1482 1486 1489 1492 1495 1499 1501 1504 1504 1505 1505 1506 1505 1505 1505
1451 1453 1458 1453 1451 1443 1435 1436 1432 1453 1452 1441 1440 1442 1446 1447 1447 1452 1452 1439 1432 1438 1442 1447 1453 1459 1466 1472 1476 1480 1485 1488 1491 1493 1494 1496 1498 1499 1500 1500 1500 1500 1499 1498
1456 1458 1456 1456 1469 1467 1447 1443 1455 1445 1438 1443 1446 1450 1446 1446 1444 1442 1457 1448 1439 1438 1446 1450 1454 1459 1466 1471 1476 1481 1483 1483 1486 1489 1490 1493 1494 1496 1496 1496 1496 1495 1494 1493
1465 1461 1467 1463 1462 1457 1458 1461 1455 1452 1447 1449 1449 1450 1447 1445 1444 1446 1448 1448 1447 1448 1452 1452 1455 1460 1465 1471 1476 1476 1477 1481 1483 1487 1488 1490 1492 1493 1493 1493 1492 1492 1491 1488
1458 1461 1464 1469 1461 1463 1466 1460 1457 1451 1466 1454 1451 1449 1448 1445 1446 1444 1445 1448 1449 1452 1453 1451 1455 1461 1467 1471 1473 1474 1477 1479 1481 1483 1485 1487 1489 1490 1491 1491 1491 1490 1489 1487
1468 1465 1463 1461 1460 1460 1462 1463 1464 1471 1462 1462 1454 1451 1448 1446 1443 1442 1444 1447 1450 1452 1451 1453 1457 1462 1466 1469 1470 1473 1475 1477 1479 1482 1484 1486 1488 1489 1489 1490 1490 1489 1488 1485
1467 1464 1464 1463 1462 1463 1464 1464 1463 1464 1464 1459 1458 1451 1450 1447 1445 1441 1442 1441 1445 1448 1450 1453 1457 1461 1465 1467 1470 1472 1474 1476 1479 1481 1483 1485 1487 1488 1489 1490 1488 1488 1486 1484